星链-5437 (STARLINK-5437 )

导读 | 豆包AI

STARLINK-5437是美国太空探索技术公司(SpaceX)星链(Starlink)星座中的一颗互联网卫星,于2022年12月17日发射升空,属于SpaceX打造的全球低轨互联网卫星星座组网卫星,旨在为全球提供高速卫星互联网接入服务,目前运行在近地轨道,共同支撑星链系统全球网络覆盖与服务能力。

Basic Information
目录编号:
54782
目录名称:
STARLINK-5437
国际标识:
2022-175AA
轨道中心:
EARTH
卫星名称:
星链-5437
卫星全名:
星链-5437 (STARLINK-5437 )
卫星状态:
已陨落 最后检测时间 2024-12-12
发射日期:
2022-12-17 UTC
国别 :
美国 (US)
星等 :
--
Orbit Information
数据来源 国际轨道数据
星历时间: 2024-12-12T11:33:49+0800
轨道信息已过期458天
半长轴: 6537.26km
偏心率: 0.0005822
轨道倾角: 53.203°
近地点辐角 342.596°
升交点赤经 113.005°
平近点角 140.809°
近地点: 155.319km
远地点: 162.931km
周期: 87.670分钟
每日圈数: 16.425143
Detailed Information
固有亮度:
5
最大亮度:
2.5
卫星平台:
Starlink v1.5
覆盖范围:
全球
运营商:
太空探索技术公司
运营商所在国:
美国
制造商(研发单位):
太空探索技术公司
制造商所在国:
美国
使用方式:
暂无
Satellite Introduction
星链(Starlink)计划是由太空探索技术公司(SpaceX)提出的一个巨型低轨卫星互联网星座项目,计划在2019年至2024年间在太空搭建由约1.2万颗卫星组成的“星链”网络,其中1584颗将部署在地球上空550千米处的近地轨道,并从2020年开始工作。该卫星仍在工作。